QPF
0.00 0.00 0.00 0.00 0.00 0.00 0.00 0.00 0.00 0.00 0.00 0.00 0.05 0.09 0.19 0.05 0.00 0.00 0.00 0.00 0.00 0.00 0.00 0.00 0.00 0.00 0.00 0.00 0.00 0.00 0.00 0.00 0.00 0.00 0.01 0.02 0.00 0.00 0.00 0.00 0.00 0.00 0.00 0.00
0.00 0.00 0.00 0.00 0.00 0.00 0.00 0.00 0.00 0.00 0.00 0.03 0.10 0.02 0.08 0.06 0.00 0.00 0.00 0.00 0.00 0.00 0.00 0.00 0.00 0.00 0.00 0.00 0.00 0.00 0.00 0.00 0.01 0.04 0.06 0.09 0.01 0.00 0.00 0.00 0.00 0.00 0.00 0.00
0.00 0.00 0.00 0.00 0.00 0.00 0.00 0.00 0.00 0.00 0.00 0.01 0.14 0.34 0.07 0.01 0.00 0.00 0.00 0.00 0.00 0.00 0.00 0.00 0.00 0.00 0.00 0.00 0.00 0.00 0.00 0.05 0.11 0.12 0.10 0.10 0.05 0.00 0.00 0.00 0.00 0.00 0.00 0.00
0.00 0.00 0.00 0.00 0.00 0.00 0.00 0.00 0.00 0.00 0.00 0.02 0.11 0.14 0.00 0.00 0.00 0.00 0.00 0.00 0.01 0.00 0.00 0.00 0.00 0.00 0.00 0.00 0.00 0.00 0.01 0.04 0.03 0.04 0.08 0.11 0.07 0.00 0.00 0.00 0.00 0.00 0.00 0.00
0.00 0.00 0.00 0.00 0.00 0.00 0.00 0.00 0.00 0.00 0.00 0.06 0.10 0.06 0.01 0.00 0.00 0.00 0.00 0.00 0.03 0.00 0.00 0.01 0.01 0.00 0.00 0.00 0.00 0.01 0.03 0.00 0.00 0.01 0.01 0.02 0.02 0.00 0.00 0.00 0.00 0.00 0.00 0.00
0.00 0.00 0.00 0.00 0.00 0.00 0.00 0.00 0.00 0.01 0.02 0.07 0.39 0.10 0.06 0.00 0.00 0.00 0.00 0.00 0.05 0.04 0.06 0.06 0.01 0.00 0.00 0.00 0.00 0.00 0.00 0.00 0.00 0.00 0.00 0.01 0.01 0.01 0.00 0.00 0.00 0.00 0.00 0.00
0.00 0.00 0.00 0.00 0.00 0.02 0.11 0.05 0.00 0.04 0.15 0.03 0.18 0.16 0.06 0.00 0.00 0.01 0.04 0.09 0.14 0.05 0.04 0.02 0.00 0.00 0.00 0.00 0.00 0.00 0.00 0.00 0.00 0.00 0.00 0.01 0.01 0.01 0.00 0.00 0.00 0.00 0.00 0.00
0.00 0.00 0.00 0.00 0.00 0.03 0.09 0.00 0.00 0.00 0.02 0.04 0.01 0.00 0.00 0.00 0.00 0.00 0.02 0.04 0.01 0.00 0.01 0.02 0.00 0.00 0.00 0.00 0.00 0.00 0.00 0.00 0.00 0.00 0.00 0.00 0.01 0.01 0.02 0.03 0.03 0.01 0.00 0.00
0.00 0.00 0.00 0.00 0.01 0.00 0.00 0.00 0.00 0.00 0.00 0.00 0.00 0.00 0.00 0.00 0.00 0.00 0.00 0.00 0.00 0.01 0.01 0.00 0.00 0.00 0.00 0.00 0.00 0.00 0.00 0.00 0.00 0.00 0.00 0.00 0.00 0.00 0.01 0.03 0.03 0.02 0.01 0.01
0.00 0.00 0.00 0.00 0.00 0.00 0.00 0.00 0.00 0.00 0.00 0.00 0.00 0.00 0.00 0.00 0.00 0.00 0.00 0.00 0.00 0.00 0.00 0.00 0.00 0.00 0.00 0.00 0.00 0.00 0.00 0.00 0.00 0.00 0.00 0.00 0.00 0.00 0.00 0.01 0.02 0.01 0.01 0.00
0.00 0.01 0.07 0.10 0.00 0.00 0.00 0.00 0.00 0.00 0.00 0.00 0.00 0.00 0.00 0.00 0.00 0.01 0.02 0.02 0.02 0.03 0.03 0.02 0.02 0.02 0.00 0.00 0.00 0.00 0.00 0.00 0.00 0.00 0.00 0.00 0.00 0.00 0.00 0.00 0.00 0.00 0.01 0.00
0.06 0.04 0.05 0.09 0.02 0.00 0.00 0.00 0.00 0.00 0.00 0.00 0.00 0.00 0.00 0.00 0.00 0.01 0.03 0.03 0.04 0.06 0.06 0.04 0.01 0.00 0.00 0.00 0.00 0.00 0.00 0.00 0.00 0.00 0.00 0.00 0.00 0.00 0.00 0.00 0.00 0.00 0.00 0.00
0.02 0.02 0.02 0.00 0.00 0.00 0.00 0.00 0.00 0.00 0.00 0.00 0.00 0.00 0.00 0.00 0.00 0.01 0.01 0.00 0.00 0.00 0.00 0.00 0.00 0.00 0.00 0.00 0.00 0.00 0.00 0.00 0.00 0.00 0.00 0.00 0.00 0.00 0.00 0.00 0.00 0.00 0.00 0.00
0.00 0.00 0.00 0.00 0.01 0.01 0.00 0.00 0.00 0.00 0.00 0.00 0.00 0.00 0.00 0.00 0.00 0.00 0.00 0.00 0.00 0.00 0.00 0.00 0.00 0.00 0.00 0.00 0.00 0.00 0.00 0.00 0.00 0.00 0.00 0.00 0.00 0.00 0.00 0.00 0.00 0.00 0.00 0.00
0.00 0.00 0.00 0.00 0.00 0.02 0.02 0.00 0.02 0.01 0.00 0.00 0.00 0.00 0.00 0.00 0.00 0.00 0.00 0.00 0.00 0.00 0.00 0.00 0.00 0.00 0.00 0.00 0.00 0.00 0.00 0.00 0.00 0.00 0.00 0.00 0.00 0.00 0.00 0.00 0.00 0.00 0.00 0.00
0.00 0.00 0.00 0.00 0.00 0.00 0.00 0.00 0.01 0.04 0.01 0.00 0.01 0.00 0.00 0.00 0.00 0.00 0.00 0.00 0.00 0.00 0.00 0.00 0.00 0.00 0.00 0.00 0.00 0.00 0.00 0.00 0.00 0.00 0.00 0.00 0.00 0.00 0.00 0.00 0.00 0.00 0.00 0.00
0.00 0.00 0.00 0.00 0.00 0.00 0.00 0.00 0.01 0.04 0.05 0.03 0.03 0.01 0.00 0.00 0.00 0.00 0.00 0.00 0.00 0.00 0.00 0.00 0.00 0.00 0.00 0.00 0.00 0.00 0.00 0.00 0.00 0.00 0.00 0.00 0.00 0.00 0.00 0.00 0.00 0.00 0.00 0.00
0.00 0.00 0.00 0.00 0.00 0.01 0.00 0.00 0.02 0.21 0.29 0.29 0.14 0.04 0.01 0.00 0.00 0.00 0.00 0.00 0.00 0.00 0.00 0.00 0.00 0.00 0.00 0.00 0.00 0.00 0.00 0.00 0.00 0.00 0.00 0.00 0.00 0.00 0.00 0.00 0.00 0.00 0.00 0.00
0.00 0.00 0.00 0.00 0.00 0.00 0.00 0.00 0.00 0.02 0.23 0.23 0.09 0.03 0.02 0.01 0.02 0.01 0.01 0.00 0.00 0.00 0.00 0.00 0.00 0.00 0.00 0.00 0.00 0.00 0.00 0.00 0.00 0.00 0.00 0.00 0.00 0.00 0.00 0.00 0.00 0.00 0.00 0.00
0.00 0.00 0.00 0.00 0.00 0.00 0.00 0.00 0.00 0.03 0.11 0.18 0.10 0.04 0.01 0.00 0.00 0.00 0.00 0.00 0.00 0.00 0.00 0.00 0.00 0.00 0.00 0.00 0.00 0.00 0.00 0.00 0.00 0.00 0.00 0.00 0.00 0.00 0.00 0.00 0.00 0.00 0.00 0.00
0.00 0.00 0.00 0.00 0.00 0.00 0.00 0.00 0.00 0.01 0.14 0.24 0.17 0.11 0.04 0.00 0.00 0.00 0.00 0.00 0.00 0.00 0.00 0.00 0.00 0.00 0.00 0.00 0.00 0.00 0.00 0.00 0.00 0.00 0.00 0.00 0.00 0.00 0.00 0.00 0.00 0.00 0.00 0.00
0.00 0.00 0.00 0.00 0.00 0.00 0.00 0.00 0.00 0.00 0.02 0.25 0.61 0.26 0.06 0.01 0.00 0.00 0.00 0.00 0.00 0.00 0.00 0.00 0.00 0.00 0.00 0.00 0.00 0.00 0.00 0.00 0.00 0.00 0.00 0.00 0.00 0.00 0.00 0.00 0.00 0.00 0.00 0.00
0.00 0.00 0.00 0.00 0.00 0.03 0.01 0.01 0.01 0.02 0.08 0.30 0.16 0.05 0.07 0.03 0.02 0.03 0.03 0.00 0.00 0.00 0.00 0.00 0.00 0.00 0.00 0.00 0.00 0.00 0.00 0.00 0.00 0.00 0.00 0.00 0.00 0.00 0.00 0.00 0.00 0.00 0.00 0.00
0.00 0.00 0.00 0.00 0.03 0.23 0.29 0.53 0.29 0.30 0.17 0.08 0.06 0.07 0.07 0.05 0.03 0.02 0.01 0.00 0.00 0.00 0.00 0.00 0.00 0.00 0.00 0.00 0.00 0.00 0.00 0.00 0.00 0.00 0.01 0.00 0.00 0.00 0.00 0.00 0.00 0.00 0.00 0.00
0.01 0.01 0.02 0.02 0.06 0.13 0.23 0.15 0.10 0.16 0.14 0.16 0.16 0.13 0.08 0.04 0.01 0.02 0.05 0.03 0.00 0.00 0.00 0.00 0.00 0.00 0.00 0.00 0.00 0.00 0.00 0.01 0.01 0.00 0.00 0.00 0.00 0.00 0.00 0.00 0.00 0.00 0.00 0.00
0.04 0.04 0.04 0.03 0.05 0.09 0.06 0.04 0.05 0.04 0.01 0.06 0.06 0.07 0.07 0.04 0.01 0.03 0.06 0.10 0.04 0.01 0.00 0.00 0.00 0.01 0.01 0.01 0.01 0.01 0.00 0.00 0.00 0.00 0.00 0.00 0.00 0.00 0.00 0.00 0.00 0.00 0.00 0.00
0.07 0.13 0.07 0.05 0.09 0.08 0.08 0.05 0.07 0.06 0.03 0.02 0.02 0.03 0.08 0.20 0.15 0.05 0.01 0.02 0.01 0.00 0.00 0.00 0.00 0.00 0.00 0.00 0.00 0.00 0.00 0.00 0.00 0.00 0.00 0.00 0.00 0.00 0.00 0.00 0.00 0.00 0.00 0.00
MSLP
1001.75 1001.07 1000.48 999.98 999.62 999.30 999.40 999.71 1000.19 1000.84 1002.61 1005.26 1006.38 1006.55 1009.61 1006.55 1004.01 1004.36 1004.41 1005.11 1006.35 1007.58 1008.53 1008.94 1009.49 1009.55 1009.63 1009.89 1010.42 1011.26 1012.05 1012.61 1013.06 1013.52 1014.27 1014.81 1015.27 1015.73 1016.01 1016.02 1016.04 1016.04 1016.14 1016.28
1002.61 1001.82 1000.85 999.91 999.37 999.09 999.14 999.12 999.36 1000.30 1001.72 1004.68 1007.29 1007.55 1008.45 1007.08 1004.47 1004.90 1004.97 1005.74 1006.63 1007.97 1009.03 1009.59 1010.08 1010.32 1010.29 1010.46 1010.98 1011.49 1012.21 1012.68 1013.17 1013.55 1014.24 1014.74 1015.19 1015.82 1016.17 1016.31 1016.27 1016.29 1016.62 1016.79
1003.06 1002.13 1001.14 1000.30 999.42 998.96 999.03 999.11 999.48 1000.10 1001.59 1005.37 1007.88 1009.49 1008.29 1004.88 1004.37 1004.40 1005.01 1006.11 1006.95 1008.20 1009.22 1009.79 1010.08 1010.42 1010.73 1011.14 1011.71 1012.22 1012.79 1013.25 1013.46 1013.82 1014.20 1014.52 1015.17 1015.65 1016.20 1016.59 1016.43 1016.70 1017.08 1017.38
1003.76 1002.91 1001.57 1000.34 999.68 999.05 999.32 999.30 999.85 1000.69 1003.38 1005.34 1007.67 1006.87 1005.71 1004.15 1003.63 1004.35 1005.07 1006.13 1007.31 1008.23 1009.25 1009.64 1010.07 1010.88 1011.38 1011.97 1012.36 1012.73 1013.44 1013.88 1014.29 1014.62 1014.52 1014.61 1015.23 1015.66 1016.07 1016.70 1016.83 1017.09 1017.41 1017.70
1004.43 1003.34 1001.97 1000.65 1000.45 1000.42 1000.20 1000.20 1001.31 1003.44 1006.28 1008.24 1008.98 1010.03 1005.41 1004.59 1004.30 1004.68 1005.24 1006.37 1007.63 1008.67 1009.62 1010.41 1010.92 1011.61 1012.14 1012.54 1012.85 1013.56 1014.02 1014.62 1014.98 1015.38 1015.41 1015.14 1015.42 1015.86 1016.15 1016.70 1017.00 1017.27 1017.54 1017.85
1005.03 1003.76 1002.24 1001.10 1000.75 1001.38 1001.20 1000.58 1001.87 1003.81 1007.00 1007.74 1009.43 1010.75 1007.35 1006.04 1005.76 1005.53 1006.37 1007.59 1008.47 1009.45 1011.02 1011.70 1012.26 1012.34 1012.85 1013.50 1013.97 1014.53 1015.20 1015.89 1016.23 1016.50 1016.42 1015.80 1015.73 1016.17 1016.49 1016.91 1017.16 1017.55 1017.94 1018.57
1004.98 1004.37 1003.13 1001.77 1001.80 1002.81 1005.26 1004.06 1003.47 1003.99 1005.74 1007.22 1007.72 1009.23 1009.16 1007.93 1007.46 1007.90 1008.71 1009.65 1010.09 1010.73 1011.23 1012.31 1013.05 1013.41 1013.95 1014.70 1015.57 1016.13 1016.43 1016.82 1017.13 1017.33 1017.22 1016.76 1016.62 1016.78 1016.91 1017.21 1017.53 1018.12 1018.56 1019.30
1004.74 1004.36 1003.37 1002.55 1002.82 1003.71 1005.35 1004.79 1004.66 1003.74 1004.98 1006.03 1007.38 1008.17 1008.52 1008.96 1009.33 1009.45 1010.06 1010.93 1011.41 1011.79 1012.86 1013.61 1013.83 1014.33 1015.26 1016.00 1016.53 1016.92 1017.33 1017.64 1017.96 1018.12 1018.02 1017.83 1017.73 1017.80 1017.81 1017.84 1018.24 1018.71 1019.33 1019.77
1004.32 1004.19 1003.88 1003.90 1004.66 1005.87 1006.02 1005.46 1004.85 1004.77 1005.06 1006.31 1007.75 1009.18 1010.06 1010.36 1010.55 1010.70 1010.89 1011.67 1012.45 1013.17 1013.88 1014.51 1014.61 1015.12 1016.08 1016.72 1016.99 1017.41 1017.71 1018.14 1018.55 1018.78 1018.83 1018.80 1018.77 1018.78 1018.86 1019.07 1019.32 1019.79 1020.29 1020.77
1004.77 1004.39 1004.99 1005.12 1005.60 1005.90 1005.94 1005.93 1005.42 1005.18 1005.46 1006.38 1008.13 1009.73 1010.55 1010.96 1011.13 1011.51 1011.70 1012.32 1013.06 1013.74 1014.50 1015.20 1015.65 1016.06 1016.60 1016.89 1017.19 1017.53 1017.91 1018.41 1018.90 1019.19 1019.54 1019.68 1019.69 1019.84 1019.99 1020.26 1020.54 1020.72 1020.94 1021.31
1005.35 1005.76 1006.57 1005.02 1005.91 1006.49 1006.52 1006.60 1006.08 1006.44 1006.53 1007.10 1008.61 1009.95 1010.92 1011.62 1012.06 1012.48 1012.47 1012.81 1013.39 1014.33 1015.27 1015.69 1015.93 1016.30 1016.74 1017.00 1017.25 1017.49 1017.71 1018.14 1018.72 1019.34 1019.71 1020.17 1020.60 1020.78 1021.00 1021.35 1021.29 1021.36 1021.54 1021.68
1007.58 1007.98 1007.68 1006.92 1007.08 1006.99 1006.81 1007.06 1007.29 1007.79 1008.05 1008.62 1009.43 1010.43 1011.48 1012.17 1012.70 1012.94 1013.04 1013.50 1014.10 1014.66 1015.31 1016.02 1016.31 1016.34 1016.80 1017.01 1017.13 1017.40 1017.40 1017.74 1018.36 1018.94 1019.30 1019.74 1020.41 1021.11 1021.88 1022.01 1022.09 1022.03 1021.91 1022.02
1008.61 1008.94 1008.98 1008.02 1007.82 1007.51 1007.24 1007.51 1008.05 1008.57 1009.08 1010.02 1010.66 1011.26 1011.90 1012.60 1013.06 1013.41 1013.51 1013.81 1014.29 1014.84 1015.49 1015.98 1016.46 1016.53 1016.72 1016.99 1017.15 1017.13 1017.30 1017.74 1018.05 1018.27 1018.70 1019.11 1019.62 1020.17 1021.13 1022.34 1022.44 1022.48 1022.57 1022.64
1008.88 1008.74 1008.46 1008.39 1008.61 1008.26 1007.65 1007.66 1008.38 1009.36 1010.21 1010.95 1011.44 1011.89 1012.12 1012.76 1013.25 1013.35 1013.65 1014.03 1014.51 1015.02 1015.48 1016.04 1016.37 1016.63 1016.73 1016.89 1017.05 1017.01 1016.91 1017.13 1017.03 1016.98 1017.20 1017.64 1018.25 1018.66 1019.47 1020.29 1021.10 1022.20 1022.72 1022.53
1009.18 1009.02 1008.75 1008.55 1008.56 1009.25 1009.31 1008.01 1008.82 1009.41 1010.43 1011.21 1011.77 1011.98 1012.20 1012.69 1013.04 1013.51 1013.97 1014.26 1014.63 1015.05 1015.50 1015.93 1016.30 1016.50 1016.68 1016.75 1016.88 1016.83 1016.57 1016.56 1016.66 1016.88 1017.02 1017.22 1017.25 1017.61 1018.09 1018.70 1019.68 1020.78 1021.79 1022.51
1009.41 1009.21 1009.40 1009.14 1008.87 1008.96 1008.79 1008.60 1008.72 1009.68 1010.39 1010.97 1011.65 1011.92 1011.87 1012.19 1012.90 1013.47 1014.07 1014.47 1014.74 1015.05 1015.42 1015.79 1016.18 1016.30 1016.56 1016.70 1016.72 1016.82 1016.89 1016.97 1016.99 1017.00 1017.00 1016.96 1017.14 1017.44 1018.01 1018.45 1018.76 1019.33 1019.88 1020.73
1009.94 1009.77 1009.59 1009.30 1009.28 1009.40 1009.03 1009.08 1009.68 1010.60 1010.41 1011.15 1011.39 1011.70 1012.09 1012.54 1012.89 1013.66 1014.33 1014.69 1014.79 1015.24 1015.65 1016.05 1016.24 1016.48 1016.68 1016.52 1016.49 1016.74 1016.95 1017.10 1017.03 1016.59 1016.76 1017.04 1017.34 1017.62 1017.89 1017.92 1018.21 1018.70 1019.31 1019.97
1010.29 1010.21 1009.97 1009.73 1009.56 1010.38 1009.32 1009.47 1009.52 1010.27 1010.80 1011.59 1011.61 1011.39 1012.02 1012.72 1013.16 1013.82 1014.25 1014.63 1014.99 1015.35 1015.71 1016.18 1016.67 1016.75 1016.77 1016.59 1016.46 1016.56 1016.77 1016.72 1016.41 1016.62 1017.08 1017.25 1017.56 1017.49 1017.56 1017.54 1017.65 1017.88 1018.54 1019.20
1010.76 1010.40 1010.26 1009.93 1009.56 1009.41 1009.49 1009.51 1009.30 1009.78 1010.88 1011.55 1012.27 1011.93 1012.16 1012.76 1013.36 1013.67 1013.86 1014.45 1014.86 1014.87 1015.52 1016.30 1016.89 1016.79 1016.86 1016.92 1016.75 1016.37 1016.43 1016.38 1016.67 1016.82 1016.96 1017.63 1017.80 1017.53 1017.31 1017.14 1017.20 1017.24 1017.45 1018.45
1011.57 1011.31 1010.79 1009.99 1009.71 1009.47 1009.25 1009.25 1008.87 1009.48 1010.54 1011.47 1011.64 1011.64 1011.73 1012.15 1013.09 1013.78 1014.53 1014.87 1014.64 1014.66 1015.86 1016.62 1016.85 1016.69 1016.99 1017.24 1017.18 1016.77 1016.36 1016.46 1016.94 1017.36 1017.48 1017.64 1017.50 1017.36 1017.35 1017.43 1017.32 1017.31 1017.39 1017.81
1011.98 1011.78 1011.40 1010.93 1010.00 1009.59 1009.24 1008.84 1008.95 1009.23 1009.96 1010.86 1012.12 1012.11 1011.82 1012.23 1012.71 1013.46 1014.24 1015.01 1015.04 1015.34 1016.01 1016.80 1016.91 1017.13 1017.24 1017.43 1017.37 1017.02 1016.99 1017.35 1017.58 1017.77 1017.86 1017.78 1017.70 1017.71 1017.80 1017.66 1017.48 1017.45 1017.43 1017.63
1012.83 1012.37 1011.77 1011.38 1010.65 1009.82 1009.35 1008.62 1008.45 1008.78 1009.63 1010.68 1011.35 1012.49 1012.08 1012.84 1013.29 1013.62 1014.16 1014.88 1015.43 1015.71 1016.34 1016.91 1017.06 1017.11 1017.18 1017.51 1017.69 1017.82 1017.61 1017.85 1017.93 1018.00 1018.14 1018.22 1018.24 1018.22 1018.05 1017.87 1017.85 1017.87 1017.75 1017.82
1013.05 1012.75 1012.17 1011.70 1010.96 1010.13 1009.36 1008.94 1009.03 1008.40 1009.69 1010.82 1011.89 1012.00 1012.44 1013.01 1013.29 1013.95 1014.75 1015.15 1015.70 1016.19 1016.33 1017.05 1017.55 1017.38 1017.59 1017.85 1017.99 1018.73 1019.10 1019.28 1019.48 1019.73 1019.67 1019.59 1019.40 1019.29 1018.74 1018.21 1018.22 1018.09 1017.92 1018.10
1013.03 1012.89 1012.37 1011.80 1011.06 1010.99 1011.20 1011.91 1010.02 1010.15 1010.19 1011.03 1011.86 1013.00 1013.42 1013.16 1014.28 1014.95 1015.50 1015.78 1016.24 1016.71 1017.48 1018.00 1018.11 1018.06 1018.33 1018.82 1019.37 1019.96 1020.25 1020.40 1020.55 1020.57 1020.55 1020.50 1020.01 1019.17 1018.53 1018.43 1018.36 1018.59 1018.90 1019.13
1012.92 1012.57 1012.28 1011.84 1011.55 1011.50 1011.61 1012.86 1012.45 1012.70 1012.41 1012.66 1013.40 1013.50 1013.87 1014.52 1015.29 1016.52 1016.73 1017.39 1017.51 1018.01 1018.84 1019.19 1019.12 1019.24 1019.53 1019.89 1020.14 1020.36 1020.54 1020.77 1020.87 1020.82 1020.54 1019.99 1019.59 1019.15 1019.23 1019.26 1019.51 1019.76 1020.16 1020.63
1012.88 1012.79 1012.70 1012.57 1012.56 1012.65 1012.73 1013.04 1013.46 1014.08 1014.19 1014.48 1014.72 1015.30 1015.96 1016.51 1016.97 1017.38 1017.97 1018.35 1018.80 1019.02 1019.51 1019.76 1019.81 1019.87 1019.91 1020.18 1020.28 1020.41 1020.81 1020.61 1020.54 1020.29 1020.07 1019.77 1019.78 1019.87 1020.08 1020.31 1020.53 1020.84 1021.30 1021.99
1013.41 1013.51 1013.56 1013.69 1013.72 1013.68 1013.89 1013.92 1014.20 1014.64 1015.12 1015.41 1015.85 1016.64 1017.10 1017.37 1017.87 1018.29 1018.67 1018.85 1019.14 1019.59 1019.88 1020.11 1020.16 1020.20 1020.21 1020.27 1020.11 1020.04 1020.26 1020.36 1020.38 1020.29 1020.11 1020.29 1020.60 1020.91 1021.17 1021.42 1021.64 1021.98 1022.43 1022.89
Thickness
5797 5807 5812 5815 5814 5822 5812 5814 5796 5812 5802 5780 5778 5782 5746 5777 5825 5818 5812 5807 5800 5793 5785 5781 5774 5774 5773 5770 5768 5761 5757 5752 5745 5744 5739 5734 5729 5724 5721 5720 5718 5719 5716 5714
5773 5796 5804 5805 5819 5823 5821 5823 5825 5824 5818 5806 5775 5779 5761 5769 5819 5808 5806 5801 5797 5790 5781 5776 5772 5768 5770 5768 5764 5761 5755 5750 5747 5744 5738 5732 5728 5722 5719 5716 5716 5714 5710 5707
5752 5786 5790 5775 5804 5816 5818 5826 5823 5809 5822 5780 5760 5745 5750 5810 5815 5809 5804 5798 5793 5785 5779 5776 5774 5774 5767 5764 5761 5756 5750 5746 5743 5741 5736 5732 5728 5721 5716 5711 5713 5708 5704 5701
5748 5764 5735 5794 5823 5823 5813 5824 5831 5831 5792 5775 5753 5762 5788 5820 5818 5807 5802 5796 5791 5785 5779 5780 5778 5769 5765 5759 5754 5751 5742 5739 5736 5732 5732 5730 5725 5720 5715 5709 5706 5703 5699 5696
5731 5739 5767 5790 5794 5796 5796 5804 5806 5791 5765 5753 5750 5733 5796 5812 5815 5806 5802 5795 5786 5783 5776 5771 5767 5763 5758 5754 5751 5743 5738 5734 5730 5724 5722 5725 5719 5714 5711 5705 5702 5698 5696 5693
5732 5724 5727 5779 5806 5804 5803 5781 5800 5791 5750 5750 5739 5713 5754 5793 5800 5798 5792 5784 5779 5772 5760 5756 5753 5755 5750 5742 5738 5733 5728 5721 5718 5713 5711 5717 5715 5709 5705 5701 5698 5694 5690 5684
5722 5717 5743 5786 5799 5777 5705 5746 5787 5788 5775 5752 5748 5732 5758 5780 5779 5776 5768 5762 5763 5758 5755 5747 5744 5743 5736 5729 5722 5718 5716 5711 5706 5703 5702 5705 5705 5702 5699 5694 5691 5686 5682 5675
5723 5713 5713 5785 5779 5751 5748 5771 5776 5787 5778 5773 5768 5766 5767 5763 5758 5759 5754 5747 5749 5746 5736 5733 5734 5730 5720 5713 5711 5709 5704 5699 5695 5693 5693 5693 5692 5690 5689 5688 5683 5677 5671 5664
5730 5730 5755 5763 5752 5754 5759 5761 5770 5773 5778 5769 5758 5748 5745 5743 5744 5746 5747 5741 5735 5728 5724 5721 5723 5719 5708 5705 5704 5700 5697 5691 5686 5683 5682 5681 5680 5679 5677 5674 5669 5661 5654 5649
5727 5741 5736 5745 5749 5751 5754 5753 5763 5769 5768 5768 5751 5739 5734 5735 5736 5735 5735 5730 5726 5720 5715 5709 5708 5705 5700 5699 5697 5693 5689 5684 5679 5675 5671 5669 5668 5666 5663 5659 5653 5648 5644 5638
5724 5725 5712 5710 5735 5737 5741 5746 5752 5753 5753 5751 5742 5732 5728 5724 5722 5720 5722 5721 5718 5709 5701 5700 5700 5697 5693 5691 5689 5686 5685 5680 5675 5669 5664 5659 5653 5651 5649 5643 5641 5638 5633 5628
5680 5692 5697 5711 5716 5730 5730 5730 5733 5731 5730 5732 5729 5722 5717 5714 5711 5710 5712 5710 5705 5701 5696 5690 5688 5688 5684 5684 5683 5678 5679 5677 5671 5665 5661 5656 5649 5641 5634 5631 5628 5624 5620 5616
5676 5685 5684 5703 5711 5717 5718 5719 5720 5720 5717 5710 5711 5709 5706 5701 5701 5698 5701 5699 5696 5692 5688 5683 5680 5677 5677 5676 5674 5674 5671 5667 5664 5661 5655 5651 5646 5641 5632 5619 5615 5611 5607 5602
5683 5688 5686 5691 5685 5702 5711 5711 5707 5708 5701 5697 5696 5696 5696 5692 5690 5692 5690 5689 5687 5683 5680 5675 5673 5670 5670 5668 5666 5665 5665 5662 5664 5663 5659 5653 5646 5642 5634 5626 5617 5606 5595 5592
5668 5675 5678 5683 5686 5677 5684 5698 5690 5695 5689 5684 5685 5685 5686 5682 5682 5679 5679 5679 5677 5674 5670 5667 5663 5661 5661 5660 5657 5657 5658 5657 5655 5651 5648 5645 5643 5639 5634 5627 5617 5602 5590 5582
5655 5662 5663 5666 5670 5675 5682 5683 5683 5681 5682 5679 5676 5677 5681 5681 5676 5672 5669 5667 5664 5662 5661 5658 5655 5655 5653 5651 5650 5648 5646 5643 5642 5640 5638 5636 5632 5627 5619 5612 5608 5602 5597 5585
5636 5640 5644 5648 5650 5655 5665 5669 5667 5658 5672 5670 5667 5669 5665 5666 5664 5659 5655 5655 5656 5652 5650 5646 5645 5645 5643 5644 5644 5640 5636 5633 5631 5633 5629 5625 5620 5613 5607 5605 5599 5593 5584 5576
5628 5630 5635 5638 5638 5632 5647 5654 5658 5656 5656 5658 5656 5656 5651 5647 5646 5644 5645 5645 5643 5640 5639 5636 5633 5633 5632 5634 5635 5633 5628 5626 5627 5623 5616 5612 5608 5605 5600 5596 5593 5588 5581 5570
5615 5620 5623 5627 5633 5635 5635 5641 5648 5652 5645 5643 5640 5642 5643 5640 5636 5637 5639 5634 5632 5633 5630 5624 5619 5622 5621 5620 5621 5624 5621 5619 5614 5611 5607 5597 5595 5594 5591 5591 5587 5585 5581 5570
5599 5603 5609 5618 5624 5626 5630 5633 5644 5644 5641 5636 5636 5637 5639 5634 5627 5626 5623 5621 5626 5628 5618 5613 5612 5613 5611 5607 5608 5611 5612 5608 5602 5595 5592 5589 5587 5586 5584 5578 5577 5574 5569 5562
5590 5592 5595 5598 5608 5615 5622 5630 5630 5637 5638 5634 5623 5623 5624 5627 5628 5621 5614 5609 5613 5612 5609 5602 5602 5600 5599 5595 5596 5598 5597 5592 5588 5583 5580 5578 5577 5574 5569 5566 5565 5564 5560 5556
5574 5577 5581 5585 5592 5602 5610 5622 5629 5634 5634 5630 5624 5606 5611 5610 5612 5614 5613 5606 5602 5601 5597 5595 5593 5590 5589 5586 5586 5582 5582 5579 5576 5573 5570 5567 5563 5560 5558 5557 5554 5549 5547 5543
5562 5564 5570 5573 5581 5593 5607 5613 5616 5630 5627 5618 5611 5605 5603 5604 5607 5604 5599 5597 5593 5590 5591 5584 5578 5580 5578 5576 5576 5568 5563 5559 5555 5551 5549 5546 5545 5542 5543 5544 5541 5539 5537 5532
5558 5557 5562 5568 5576 5578 5573 5561 5584 5602 5605 5604 5594 5593 5593 5599 5595 5591 5586 5584 5582 5579 5573 5570 5568 5568 5567 5563 5557 5550 5546 5542 5538 5535 5532 5529 5532 5536 5538 5535 5531 5526 5521 5514
5558 5561 5563 5566 5567 5567 5568 5562 5571 5572 5581 5586 5586 5589 5587 5584 5582 5573 5572 5567 5567 5563 5555 5553 5553 5553 5551 5546 5543 5539 5536 5532 5528 5526 5526 5527 5527 5526 5522 5518 5512 5505 5499 5489
5559 5560 5560 5561 5561 5562 5565 5567 5566 5563 5564 5565 5568 5567 5564 5563 5562 5561 5557 5555 5553 5550 5546 5544 5543 5543 5541 5537 5534 5531 5527 5527 5525 5523 5522 5521 5517 5512 5506 5498 5492 5485 5478 5467
5557 5554 5554 5554 5555 5558 5559 5561 5560 5558 5557 5558 5557 5553 5552 5552 5551 5549 5547 5547 5546 5541 5538 5535 5534 5533 5533 5531 5530 5530 5526 5522 5518 5515 5514 5507 5500 5493 5486 5480 5473 5465 5457 5450